When you browse on this site, cookies collect data to enhance your experience and personalize the content and advertising you see.
Visit our Privacy Policy to learn more. By continuing to use the site, you agree to this use of cookies and data.

Hourly Weather La Rioja

Today, 12 August, Wednesday

Time Temperature Precipitation Wind Pressure Humidity
00:00 +7°C° 0 mm 0 mps 714 mmHg 35%
01:00 +6°C° 0 mm 0 mps 714 mmHg 36%
02:00 +6°C° 0 mm 0 mps 713 mmHg 38%
03:00 +6°C° 0 mm 1 mps 713 mmHg 39%
04:00 +6°C° 0 mm 1 mps 713 mmHg 40%
05:00 +6°C° 0 mm 1 mps 713 mmHg 41%
06:00 +7°C° 0 mm 1 mps 713 mmHg 39%
07:00 +6°C° 0 mm 2 mps 713 mmHg 37%
08:00 +7°C° 0 mm 2 mps 714 mmHg 34%
09:00 +9°C° 0 mm 2 mps 714 mmHg 31%
10:00 +12°C° 0 mm 2 mps 713 mmHg 27%
11:00 +13°C° 0 mm 2 mps 713 mmHg 24%
12:00 +14°C° 0 mm 2 mps 712 mmHg 22%
13:00 +15°C° 0 mm 2 mps 711 mmHg 21%
14:00 +16°C° 0 mm 2 mps 711 mmHg 20%
15:00 +16°C° 0 mm 2 mps 710 mmHg 20%
16:00 +16°C° 0 mm 2 mps 710 mmHg 21%
17:00 +16°C° 0 mm 2 mps 710 mmHg 21%
18:00 +14°C° 0 mm 1 mps 710 mmHg 24%
19:00 +12°C° 0 mm 1 mps 711 mmHg 27%
20:00 +11°C° 0 mm 1 mps 711 mmHg 30%
21:00 +10°C° 0 mm 1 mps 711 mmHg 31%
22:00 +9°C° 0 mm 1 mps 711 mmHg 32%
23:00 +9°C° 0 mm 1 mps 711 mmHg 33%

Tomorrow, 13 August, Thursday

Time Temperature Precipitation Wind Pressure Humidity
00:00 +9°C° 0 mm 1 mps 711 mmHg 33%
01:00 +8°C° 0 mm 1 mps 711 mmHg 33%
02:00 +8°C° 0 mm 1 mps 711 mmHg 33%
03:00 +8°C° 0 mm 1 mps 711 mmHg 36%
04:00 +7°C° 0 mm 1 mps 711 mmHg 39%
05:00 +7°C° 0 mm 1 mps 711 mmHg 43%
06:00 +8°C° 0 mm 1 mps 711 mmHg 39%
07:00 +9°C° 0 mm 1 mps 712 mmHg 36%
08:00 +10°C° 0 mm 1 mps 712 mmHg 33%
09:00 +12°C° 0 mm 1 mps 712 mmHg 29%
10:00 +15°C° 0 mm 2 mps 712 mmHg 24%
11:00 +17°C° 0 mm 2 mps 712 mmHg 20%
12:00 +18°C° 0 mm 2 mps 711 mmHg 19%
13:00 +19°C° 0 mm 2 mps 711 mmHg 17%
14:00 +20°C° 0 mm 2 mps 710 mmHg 16%
15:00 +20°C° 0 mm 2 mps 709 mmHg 16%
16:00 +20°C° 0 mm 2 mps 709 mmHg 16%
17:00 +20°C° 0 mm 2 mps 708 mmHg 16%
18:00 +17°C° 0 mm 2 mps 708 mmHg 20%
19:00 +15°C° 0 mm 1 mps 708 mmHg 23%
20:00 +12°C° 0 mm 1 mps 707 mmHg 26%
21:00 +12°C° 0 mm 1 mps 707 mmHg 28%
22:00 +11°C° 0 mm 1 mps 707 mmHg 29%
23:00 +11°C° 0 mm 1 mps 707 mmHg 31%

Day after tomorrow, 14 August, Friday

Time Temperature Precipitation Wind Pressure Humidity
00:00 +11°C° 0 mm 1 mps 706 mmHg 33%
01:00 +9°C° 0 mm 2 mps 706 mmHg 36%
02:00 +9°C° 0 mm 2 mps 705 mmHg 38%
03:00 +8°C° 0 mm 2 mps 705 mmHg 42%
04:00 +8°C° 0 mm 2 mps 705 mmHg 46%
05:00 +7°C° 0 mm 2 mps 705 mmHg 50%
06:00 +8°C° 0 mm 2 mps 706 mmHg 45%
07:00 +10°C° 0 mm 2 mps 707 mmHg 40%
08:00 +12°C° 0 mm 2 mps 708 mmHg 35%
09:00 +14°C° 0 mm 2 mps 708 mmHg 30%
10:00 +17°C° 0 mm 3 mps 709 mmHg 26%
11:00 +19°C° 0 mm 3 mps 710 mmHg 22%
12:00 +20°C° 0 mm 4 mps 710 mmHg 20%
13:00 +21°C° 0 mm 4 mps 710 mmHg 19%
14:00 +22°C° 0 mm 4 mps 710 mmHg 17%
15:00 +22°C° 0 mm 5 mps 710 mmHg 17%
16:00 +21°C° 0 mm 5 mps 710 mmHg 18%
17:00 +21°C° 0 mm 5 mps 710 mmHg 18%
18:00 +18°C° 0 mm 4 mps 711 mmHg 24%
19:00 +16°C° 0 mm 3 mps 712 mmHg 30%
20:00 +13°C° 0 mm 2 mps 712 mmHg 36%
21:00 +12°C° 0 mm 2 mps 712 mmHg 36%
22:00 +10°C° 0 mm 2 mps 713 mmHg 35%
23:00 +9°C° 0 mm 2 mps 713 mmHg 34%

15 August, Saturday

Time Temperature Precipitation Wind Pressure Humidity
00:00 +9°C° 0 mm 2 mps 713 mmHg 34%
01:00 +8°C° 0 mm 2 mps 713 mmHg 34%
02:00 +8°C° 0 mm 2 mps 713 mmHg 34%
03:00 +7°C° 0 mm 2 mps 712 mmHg 36%
04:00 +8°C° 0 mm 1 mps 712 mmHg 38%
05:00 +7°C° 0 mm 1 mps 711 mmHg 40%
06:00 +8°C° 0 mm 1 mps 711 mmHg 39%
07:00 +9°C° 0 mm 1 mps 712 mmHg 37%
08:00 +10°C° 0 mm 1 mps 712 mmHg 36%
09:00 +12°C° 0 mm 1 mps 712 mmHg 33%
10:00 +14°C° 0 mm 1 mps 711 mmHg 30%
11:00 +16°C° 0 mm 2 mps 711 mmHg 28%
12:00 +17°C° 0 mm 2 mps 711 mmHg 26%
13:00 +18°C° 0 mm 2 mps 710 mmHg 24%
14:00 +19°C° 0 mm 2 mps 710 mmHg 23%
15:00 +19°C° 0 mm 2 mps 710 mmHg 23%
16:00 +19°C° 0 mm 3 mps 711 mmHg 23%
17:00 +19°C° 0 mm 3 mps 711 mmHg 23%
18:00 +17°C° 0 mm 3 mps 712 mmHg 27%
19:00 +15°C° 0 mm 2 mps 713 mmHg 31%
20:00 +13°C° 0 mm 2 mps 714 mmHg 35%
21:00 +12°C° 0 mm 2 mps 714 mmHg 38%
22:00 +12°C° 0 mm 1 mps 715 mmHg 40%
23:00 +11°C° 0 mm 1 mps 715 mmHg 42%

16 August, Sunday

Time Temperature Precipitation Wind Pressure Humidity
00:00 +10°C° 0 mm 1 mps 715 mmHg 44%
01:00 +10°C° 0 mm 1 mps 715 mmHg 45%
02:00 +9°C° 0 mm 1 mps 714 mmHg 47%
03:00 +9°C° 0 mm 1 mps 714 mmHg 51%
04:00 +8°C° 0 mm 1 mps 713 mmHg 54%
05:00 +8°C° 0 mm 1 mps 713 mmHg 58%
06:00 +9°C° 0 mm 1 mps 713 mmHg 53%
07:00 +10°C° 0 mm 1 mps 713 mmHg 47%
08:00 +12°C° 0 mm 1 mps 713 mmHg 42%
09:00 +14°C° 0 mm 1 mps 713 mmHg 38%
10:00 +15°C° 0 mm 2 mps 713 mmHg 34%
11:00 +17°C° 0 mm 2 mps 713 mmHg 30%
12:00 +18°C° 0 mm 2 mps 712 mmHg 28%
13:00 +20°C° 0 mm 2 mps 711 mmHg 26%
14:00 +21°C° 0 mm 2 mps 711 mmHg 24%
15:00 +21°C° 0 mm 2 mps 711 mmHg 24%
16:00 +21°C° 0 mm 3 mps 711 mmHg 25%
17:00 +21°C° 0 mm 3 mps 710 mmHg 25%
18:00 +19°C° 0 mm 3 mps 711 mmHg 30%
19:00 +17°C° 0 mm 3 mps 711 mmHg 34%
20:00 +15°C° 0 mm 2 mps 712 mmHg 39%
21:00 +13°C° 0 mm 3 mps 712 mmHg 41%
22:00 +12°C° 0 mm 3 mps 713 mmHg 43%
23:00 +12°C° 0 mm 3 mps 714 mmHg 45%

17 August, Monday

Time Temperature Precipitation Wind Pressure Humidity
00:00 +11°C° 0 mm 3 mps 714 mmHg 46%
01:00 +11°C° 0 mm 3 mps 714 mmHg 47%
02:00 +11°C° 0 mm 3 mps 715 mmHg 49%
03:00 +10°C° 0 mm 2 mps 715 mmHg 52%
04:00 +9°C° 0 mm 2 mps 715 mmHg 55%
05:00 +9°C° 0 mm 2 mps 715 mmHg 58%
06:00 +10°C° 0 mm 2 mps 715 mmHg 54%
07:00 +12°C° 0 mm 1 mps 716 mmHg 50%
08:00 +13°C° 0 mm 1 mps 716 mmHg 46%
09:00 +14°C° 0 mm 2 mps 716 mmHg 42%
10:00 +16°C° 0 mm 2 mps 716 mmHg 37%
11:00 +17°C° 0 mm 2 mps 716 mmHg 32%
12:00 +18°C° 0 mm 2 mps 715 mmHg 31%
13:00 +19°C° 0 mm 2 mps 714 mmHg 29%
14:00 +20°C° 0 mm 2 mps 713 mmHg 28%
15:00 +20°C° 0 mm 2 mps 713 mmHg 28%
16:00 +20°C° 0 mm 2 mps 713 mmHg 28%
17:00 +20°C° 0 mm 2 mps 713 mmHg 28%
18:00 +18°C° 0 mm 2 mps 713 mmHg 33%
19:00 +16°C° 0 mm 2 mps 713 mmHg 37%
20:00 +14°C° 0 mm 2 mps 714 mmHg 41%
21:00 +13°C° 0 mm 2 mps 714 mmHg 43%
22:00 +13°C° 0 mm 2 mps 715 mmHg 45%
23:00 +12°C° 0 mm 2 mps 716 mmHg 47%
Show more